Change the Weather History Date:

Tuesday, August 26, 2014

  Actual Average Record
Temperature  
Mean Temperature 68 °F 73 °F  
Max Temperature 80 °F 84 °F 95 °F (1900)
Min Temperature 55 °F 62 °F 48 °F (1942)
Degree Days  
Heating Degree Days 0 0  
Month to date heating degree days 0 0  
Since 1 June heating degree days 1 15  
Since 1 July heating degree days 0 1  
Cooling Degree Days 3 8  
Month to date cooling degree days 125 246  
Year to date cooling degree days 784 860  
Since 1 June cooling degree days 670 778  
Growing Degree Days 17 (Base 50)    
Moisture  
Dew Point 59 °F    
Average Humidity 74    
Maximum Humidity 100    
Minimum Humidity 48    
Precipitation  
Precipitation 0.00 in 0.10 in 1.61 in (1928)
Month to date precipitation 4.78 2.73  
Year to date precipitation 33.99 27.40  
Snow  
Snow 0.00 in - - ()
Month to date snowfall 0.0  
Since 1 June snowfall 0.0  
Since 1 July snowfall 0.0  
Snow Depth 0.00 in    
Sea Level Pressure  
Sea Level Pressure 30.16 in    
Wind  
Wind Speed 4 mph (NE)    
Max Wind Speed 10 mph    
Max Gust Speed 16 mph    
Visibility 10 miles    
Events      
T = Trace of Precipitation, MM = Missing Value Source: NWS Daily Summary

Daily Weather History Graph

Daily Weather History Graph

Search for Another Location

Airport or City:

Trip Planner

Search our weather history database for the weather conditions in past years. The results will help you decide how hot, cold, wet, or windy it might be!

Date:

Astronomy

Aug. 26, 2014 Rise Set
Actual Time 6:42 AM EDT 7:54 PM EDT
Civil Twilight 6:15 AM EDT 8:21 PM EDT
Nautical Twilight 5:43 AM EDT 8:53 PM EDT
Astronomical Twilight 5:09 AM EDT 9:26 PM EDT
Moon 7:38 AM EDT (8/26) 8:17 PM EDT (8/26)
Length of Visible Light 14h 05m
Length of Day
13h 11m
New Moon, 1% of the Moon is Illuminated
Aug 26
New Moon
Sep 2
First Quarter
Sep 8
Full
Sep 15
Last Quarter
Sep 24
New

Hourly Weather History & Observations

Time (EDT) Temp. Dew Point Humidity Pressure Visibility Wind Dir Wind Speed Gust Speed Precip Events Conditions
12:54 AM 57.9 °F 57.9 °F 100% 30.18 in 10.0 mi Calm Calm - N/A   Clear
1:54 AM 55.9 °F 55.9 °F 100% 30.17 in 10.0 mi Calm Calm - N/A   Clear
2:54 AM 55.9 °F 55.9 °F 100% 30.17 in 10.0 mi Calm Calm - N/A   Clear
3:54 AM 57.0 °F 57.0 °F 100% 30.16 in 10.0 mi Calm Calm - N/A   Clear
4:54 AM 57.9 °F 57.0 °F 97% 30.16 in 10.0 mi Calm Calm - N/A   Clear
5:54 AM 57.9 °F 57.0 °F 97% 30.17 in 10.0 mi North 4.6 mph - N/A   Clear
6:54 AM 57.0 °F 55.9 °F 96% 30.17 in 10.0 mi Calm Calm - N/A   Clear
7:54 AM 62.1 °F 57.9 °F 86% 30.18 in 10.0 mi NNE 6.9 mph - N/A   Clear
8:54 AM 66.0 °F 60.1 °F 81% 30.19 in 10.0 mi NNE 5.8 mph - N/A   Clear
9:54 AM 70.0 °F 61.0 °F 73% 30.19 in 10.0 mi NNE 4.6 mph - N/A   Clear
10:54 AM 73.9 °F 60.1 °F 62% 30.21 in 10.0 mi NE 5.8 mph - N/A   Clear
11:54 AM 75.2 °F 60.8 °F 61% 30.22 in 10.0 mi NNE 6.9 mph - N/A   Clear
12:54 PM 75.9 °F 59.0 °F 56% 30.19 in 10.0 mi ESE 6.9 mph - N/A   Partly Cloudy
1:54 PM 77.0 °F 59.0 °F 54% 30.18 in 10.0 mi NE 9.2 mph - N/A   Scattered Clouds
2:54 PM 78.1 °F 59.0 °F 52% 30.16 in 10.0 mi East 6.9 mph - N/A   Clear
3:54 PM 79.0 °F 57.0 °F 47% 30.14 in 10.0 mi East 8.1 mph - N/A   Clear
4:54 PM 78.8 °F 59.0 °F 51% 30.14 in 10.0 mi NNE 4.6 mph - N/A   Clear
5:54 PM 79.0 °F 59.0 °F 50% 30.12 in 10.0 mi NE 4.6 mph - N/A   Clear
6:54 PM 75.9 °F 59.0 °F 56% 30.13 in 10.0 mi NE 5.8 mph - N/A   Clear
7:54 PM 66.9 °F 62.1 °F 84% 30.13 in 10.0 mi Calm Calm - N/A   Clear
8:54 PM 63.0 °F 61.0 °F 93% 30.14 in 10.0 mi Calm Calm - N/A   Clear
9:54 PM 63.0 °F 61.0 °F 93% 30.15 in 10.0 mi NNW 3.5 mph - N/A   Clear
10:54 PM 64.0 °F 62.1 °F 93% 30.15 in 10.0 mi Calm Calm - N/A   Clear
11:54 PM 62.1 °F 61.0 °F 96% 30.13 in 10.0 mi Calm Calm - N/A   Clear